Tracking 28790 objects as of 19-Apr-2024
HD Live streaming from Space Station
objects crossing your sky now

YZ-1 R/B

Track YZ-1 R/B now!


NORAD ID: 44866
Int'l Code: 2019-090C
Perigee: 22,148.8 km
Apogee: 22,550.8 km
Inclination: 55.7 °
Period: 807.3 minutes
Semi major axis: 28720 km
RCS: Unknown
Launch date: December 16, 2019
Source: People's Republic of China (PRC)
Launch site: Xichang Space Center, China (XSC)

Note: This is a ROCKET BODY
Your satellite tracking list
Your tracking list is empty




NASA's NSSDC Master Catalog

Two Line Element Set (TLE):
1 44866U 19090C   24107.69478954  .00000023  00000-0  00000-0 0  9998
2 44866  55.7040  93.5756 0069984  22.9537 337.3531  1.78364693 28259
Source of the keplerian elements: AFSPC